User: anonymous   Login
Location: Caltech
(34.1382°N, 118.1253°W)
Time: 13:25:18
(UTC-08:00)
Language:

Cosmos 1408 Rocket - Orbit

View from above orbital plane
View from above orbital plane
View from above satellite
View from above satellite

Ground track
Ground track

The orbit data is extracted from the following two-line orbital elements,

1 13553U 82092B   18050.98996126  .00000079  00000-0  65861-5 0  9999
2 13553  82.5709   3.1999 0020180 308.8058 118.1549 14.84157591913797
Epoch (UTC): 19 February 2018 23:45:32
Eccentricity: 0.0020180
inclination: 82.5709°
perigee height: 602 km
apogee height: 630 km
right ascension of ascending node: 3.1999°
argument of perigee: 308.8058°
revolutions per day: 14.84157591
mean anomaly at epoch: 118.1549°
orbit number at epoch: 91379

The dashed part of the orbit path shows where the satellite is in the earth's shadow,  

DLR